• en Suisse
  • Liste des pays
  • À 7 jours
  • Température de l'eau
  • Carte satellitaire
  • Carte météo
  • Widgets météo
  • user-avatar
    Se connecter

    Météo par heure à Zabudenovskiy

    Ce jour, 23 Septembre, Dimanche

    Heure Température Précipitation Vent Pression Humidité
    00:00 +21°C° 0 mm 3 m/s 761 mmHg 53%
    01:00 +20°C° 0 mm 3 m/s 760 mmHg 54%
    02:00 +20°C° 0 mm 3 m/s 760 mmHg 56%
    03:00 +19°C° 0 mm 3 m/s 760 mmHg 57%
    04:00 +19°C° 0 mm 3 m/s 760 mmHg 60%
    05:00 +19°C° 0 mm 3 m/s 760 mmHg 63%
    06:00 +18°C° 0 mm 3 m/s 760 mmHg 66%
    07:00 +20°C° 0 mm 3 m/s 760 mmHg 61%
    08:00 +21°C° 0 mm 3 m/s 760 mmHg 57%
    09:00 +23°C° 0 mm 4 m/s 759 mmHg 52%
    10:00 +26°C° 0 mm 4 m/s 759 mmHg 45%
    11:00 +28°C° 0 mm 5 m/s 759 mmHg 38%
    12:00 +30°C° 0 mm 5 m/s 758 mmHg 31%
    13:00 +30°C° 0 mm 6 m/s 758 mmHg 31%
    14:00 +30°C° 0 mm 6 m/s 758 mmHg 31%
    15:00 +30°C° 0 mm 7 m/s 758 mmHg 32%
    16:00 +28°C° 0.1 mm 6 m/s 758 mmHg 39%
    17:00 +26°C° 0.1 mm 6 m/s 758 mmHg 47%
    18:00 +23°C° 0.1 mm 5 m/s 758 mmHg 54%
    19:00 +22°C° 0.1 mm 5 m/s 759 mmHg 59%
    20:00 +21°C° 0.1 mm 5 m/s 759 mmHg 65%
    21:00 +20°C° 0.1 mm 4 m/s 760 mmHg 70%
    22:00 +19°C° 0 mm 5 m/s 760 mmHg 72%
    23:00 +17°C° 0 mm 5 m/s 761 mmHg 74%

    Demain, 24 Septembre, Lundi

    Heure Température Précipitation Vent Pression Humidité
    00:00 +16°C° 0 mm 5 m/s 761 mmHg 76%
    01:00 +15°C° 0 mm 4 m/s 761 mmHg 76%
    02:00 +14°C° 0 mm 3 m/s 762 mmHg 75%
    03:00 +13°C° 0 mm 3 m/s 762 mmHg 74%
    04:00 +14°C° 0 mm 2 m/s 762 mmHg 75%
    05:00 +13°C° 0 mm 2 m/s 762 mmHg 76%
    06:00 +13°C° 0 mm 1 m/s 763 mmHg 76%
    07:00 +14°C° 0 mm 1 m/s 763 mmHg 69%
    08:00 +15°C° 0 mm 1 m/s 763 mmHg 62%
    09:00 +16°C° 0 mm 1 m/s 763 mmHg 55%
    10:00 +18°C° 0 mm 2 m/s 762 mmHg 48%
    11:00 +19°C° 0 mm 2 m/s 762 mmHg 41%
    12:00 +21°C° 0 mm 3 m/s 762 mmHg 33%
    13:00 +22°C° 0 mm 3 m/s 761 mmHg 30%
    14:00 +23°C° 0 mm 4 m/s 760 mmHg 27%
    15:00 +25°C° 0 mm 4 m/s 759 mmHg 24%
    16:00 +24°C° 0 mm 3 m/s 759 mmHg 28%
    17:00 +22°C° 0 mm 3 m/s 758 mmHg 31%
    18:00 +23°C° 0 mm 2 m/s 758 mmHg 34%
    19:00 +21°C° 0 mm 2 m/s 758 mmHg 40%
    20:00 +21°C° 0 mm 3 m/s 757 mmHg 45%
    21:00 +20°C° 0 mm 3 m/s 757 mmHg 50%
    22:00 +20°C° 0 mm 3 m/s 756 mmHg 54%
    23:00 +20°C° 0 mm 4 m/s 756 mmHg 59%

    Après-demain, 25 Septembre, Mardi

    Heure Température Précipitation Vent Pression Humidité
    00:00 +20°C° 0 mm 4 m/s 755 mmHg 64%
    01:00 +20°C° 0 mm 5 m/s 755 mmHg 70%
    02:00 +20°C° 0 mm 5 m/s 755 mmHg 76%
    03:00 +20°C° 0 mm 6 m/s 755 mmHg 82%
    04:00 +20°C° 0.1 mm 6 m/s 755 mmHg 81%
    05:00 +19°C° 0.1 mm 6 m/s 755 mmHg 80%
    06:00 +17°C° 0.1 mm 6 m/s 756 mmHg 79%
    07:00 +16°C° 0.2 mm 6 m/s 756 mmHg 77%
    08:00 +15°C° 0.2 mm 5 m/s 757 mmHg 75%
    09:00 +14°C° 0.2 mm 5 m/s 757 mmHg 73%
    10:00 +15°C° 0.2 mm 5 m/s 758 mmHg 68%
    11:00 +15°C° 0.2 mm 5 m/s 758 mmHg 63%
    12:00 +16°C° 0.2 mm 5 m/s 759 mmHg 57%
    13:00 +17°C° 0 mm 5 m/s 759 mmHg 52%
    14:00 +19°C° 0 mm 5 m/s 759 mmHg 46%
    15:00 +19°C° 0 mm 5 m/s 759 mmHg 40%
    16:00 +19°C° 0 mm 5 m/s 759 mmHg 41%
    17:00 +19°C° 0 mm 4 m/s 760 mmHg 41%
    18:00 +18°C° 0 mm 4 m/s 760 mmHg 42%
    19:00 +18°C° 0 mm 4 m/s 760 mmHg 42%
    20:00 +17°C° 0 mm 4 m/s 761 mmHg 42%
    21:00 +17°C° 0 mm 4 m/s 762 mmHg 42%
    22:00 +15°C° 0 mm 4 m/s 762 mmHg 45%
    23:00 +14°C° 0 mm 4 m/s 762 mmHg 48%

    26 Septembre, Mercredi

    Heure Température Précipitation Vent Pression Humidité
    00:00 +13°C° 0 mm 4 m/s 762 mmHg 51%
    01:00 +12°C° 0 mm 4 m/s 763 mmHg 56%
    02:00 +12°C° 0 mm 3 m/s 763 mmHg 60%
    03:00 +11°C° 0 mm 3 m/s 764 mmHg 65%
    04:00 +10°C° 0 mm 3 m/s 764 mmHg 66%
    05:00 +10°C° 0 mm 3 m/s 765 mmHg 67%
    06:00 +9°C° 0 mm 3 m/s 765 mmHg 68%
    07:00 +10°C° 0 mm 3 m/s 766 mmHg 63%
    08:00 +11°C° 0 mm 3 m/s 766 mmHg 57%
    09:00 +12°C° 0 mm 4 m/s 767 mmHg 51%
    10:00 +13°C° 0 mm 4 m/s 767 mmHg 47%
    11:00 +14°C° 0 mm 4 m/s 767 mmHg 42%
    12:00 +15°C° 0 mm 4 m/s 768 mmHg 37%
    13:00 +15°C° 0 mm 4 m/s 768 mmHg 36%
    14:00 +17°C° 0 mm 4 m/s 768 mmHg 35%
    15:00 +17°C° 0 mm 4 m/s 768 mmHg 33%
    16:00 +15°C° 0 mm 4 m/s 768 mmHg 35%
    17:00 +14°C° 0 mm 3 m/s 768 mmHg 36%
    18:00 +14°C° 0 mm 3 m/s 768 mmHg 37%
    19:00 +13°C° 0 mm 3 m/s 769 mmHg 39%
    20:00 +12°C° 0 mm 3 m/s 769 mmHg 41%
    21:00 +13°C° 0 mm 2 m/s 770 mmHg 43%
    22:00 +12°C° 0 mm 2 m/s 770 mmHg 45%
    23:00 +10°C° 0 mm 2 m/s 770 mmHg 47%

    27 Septembre, Jeudi

    Heure Température Précipitation Vent Pression Humidité
    00:00 +10°C° 0 mm 2 m/s 770 mmHg 49%
    01:00 +9°C° 0 mm 2 m/s 770 mmHg 51%
    02:00 +9°C° 0 mm 2 m/s 770 mmHg 52%
    03:00 +8°C° 0 mm 2 m/s 770 mmHg 54%
    04:00 +8°C° 0 mm 2 m/s 770 mmHg 56%
    05:00 +9°C° 0 mm 1 m/s 770 mmHg 58%
    06:00 +8°C° 0 mm 1 m/s 770 mmHg 59%
    07:00 +10°C° 0 mm 1 m/s 770 mmHg 54%
    08:00 +11°C° 0 mm 1 m/s 770 mmHg 49%
    09:00 +13°C° 0 mm 2 m/s 770 mmHg 44%
    10:00 +14°C° 0 mm 2 m/s 769 mmHg 39%
    11:00 +14°C° 0 mm 3 m/s 769 mmHg 34%
    12:00 +17°C° 0 mm 4 m/s 769 mmHg 30%
    13:00 +17°C° 0 mm 4 m/s 768 mmHg 29%
    14:00 +17°C° 0 mm 5 m/s 768 mmHg 27%
    15:00 +17°C° 0 mm 5 m/s 767 mmHg 26%
    16:00 +16°C° 0 mm 5 m/s 767 mmHg 29%
    17:00 +15°C° 0 mm 4 m/s 766 mmHg 31%
    18:00 +14°C° 0 mm 4 m/s 766 mmHg 33%
    19:00 +14°C° 0 mm 4 m/s 766 mmHg 37%
    20:00 +13°C° 0 mm 4 m/s 766 mmHg 40%
    21:00 +12°C° 0 mm 4 m/s 766 mmHg 44%
    22:00 +12°C° 0 mm 4 m/s 766 mmHg 45%
    23:00 +12°C° 0 mm 3 m/s 766 mmHg 47%

    28 Septembre, Vendredi

    Heure Température Précipitation Vent Pression Humidité
    00:00 +11°C° 0 mm 3 m/s 765 mmHg 49%
    01:00 +11°C° 0 mm 3 m/s 765 mmHg 49%
    02:00 +11°C° 0 mm 3 m/s 765 mmHg 49%
    03:00 +11°C° 0 mm 3 m/s 764 mmHg 49%
    04:00 +11°C° 0 mm 3 m/s 764 mmHg 50%
    05:00 +11°C° 0 mm 3 m/s 764 mmHg 51%
    06:00 +11°C° 0 mm 3 m/s 764 mmHg 51%
    07:00 +12°C° 0 mm 4 m/s 764 mmHg 47%
    08:00 +14°C° 0 mm 4 m/s 764 mmHg 43%
    09:00 +16°C° 0 mm 5 m/s 763 mmHg 39%
    10:00 +17°C° 0 mm 5 m/s 763 mmHg 35%
    11:00 +20°C° 0 mm 5 m/s 763 mmHg 32%
    12:00 +21°C° 0 mm 5 m/s 763 mmHg 29%
    13:00 +22°C° 0 mm 5 m/s 762 mmHg 29%
    14:00 +22°C° 0 mm 5 m/s 762 mmHg 29%
    15:00 +22°C° 0 mm 5 m/s 761 mmHg 29%
    16:00 +21°C° 0 mm 4 m/s 761 mmHg 32%
    17:00 +20°C° 0 mm 4 m/s 761 mmHg 35%
    18:00 +19°C° 0 mm 3 m/s 761 mmHg 38%
    19:00 +18°C° 0 mm 3 m/s 761 mmHg 43%
    20:00 +17°C° 0 mm 3 m/s 761 mmHg 47%
    21:00 +16°C° 0 mm 3 m/s 761 mmHg 51%
    22:00 +16°C° 0 mm 3 m/s 761 mmHg 54%
    23:00 +14°C° 0 mm 3 m/s 761 mmHg 56%
    Voir plus